Location: Jetmore Motorplex
(37.9889°N, 99.8876°W)
Time: 00:28:17
(UTC+00:00)

Cosmos 1707 Rocket - Pass Details

Date: 17 February 2020
Orbit: 605 x 631 km, 82.5° (Epoch: 09 April)

Event Time Altitude Azimuth Distance (km) Brightness Sun altitude
Rises 01:20:42 0° 360° (N) 2,910 7.0 -12.8°
Reaches altitude 10° 01:23:01 10° 7° (N) 2,003 6.1 -13.2°
Maximum altitude 01:27:16 44° 79° (E) 873 3.9 -14.1°
Drops below altitude 10° 01:31:31 10° 152° (SSE) 2,001 5.9 -14.9°
Sets 01:33:49 0° 159° (SSE) 2,906 6.8 -15.4°
